Location: Coll
(42.4728°N, 0.7714°E)
Time: 12:41:40
(UTC+00:00)

CZ-2C R/B - Pass Details

Date: 23 October 2020
Orbit: 391 x 586 km, 35.0° (Epoch: 30 November)

Event Time Altitude Azimuth Distance (km) Brightness Sun altitude
Exits shadow 05:23:30 - 228° (SW) 1,548 3.2 -11.0°
Reaches altitude 10° 05:24:14 10° 216° (SW) 1,437 3.2 -10.9°
Maximum altitude 05:25:11 11° 199° (SSW) 1,387 3.2 -10.7°
Drops below altitude 10° 05:26:08 10° 182° (S) 1,451 3.5 -10.5°
Sets 05:29:36 0° 145° (SE) 2,349 5.2 -9.9°
